Location: *
(38.4303°S, 157.0822°W)
Time: 15:02:34
(UTC+00:00)

PSLV R/B - Pass Details

Date: 21 May 2024
Orbit: 578 x 608 km, 98.1° (Epoch: 23 June)

Event Time Altitude Azimuth Distance (km) Brightness Sun altitude
Rises 15:17:04 0° 23° (NNE) 2,836 7.3 -25.5°
Reaches altitude 10° 15:19:14 10° 27° (NNE) 1,947 6.5 -25.1°
Maximum altitude 15:23:24 58° 106° (ESE) 715 4.0 -24.3°
Enters shadow 15:25:46 25° 176° (S) 1,260 5.1 -23.8°
